Location: Napier
(39.4830°S, 176.9170°E)
Time: 05:32:36
(UTC+13:00)

ISS - Pass Details

Date: 01 February 2019
Orbit: 403 x 411 km, 51.6° (Epoch: 20 February)

Event Time Altitude Azimuth Distance (km) Brightness Sun altitude
Exits shadow 03:47:30 22° 85° (E) 978 -1.6 -24.2°
Drops below altitude 10° 03:49:08 10° 107° (ESE) 1,495 -0.2 -24.1°
Sets 03:51:24 0° 119° (ESE) 2,362 1.2 -23.8°
